Погода в Канаше

Россия / Чувашская Республика     55°30′24″N   47°29′30″E
темп.,
°C
ветер,
м/с
пор.,
м/с
влажн.,
%
обл.,
%
осадки,
мм/ч
давл.,
гПа
погр.,
м
27 октября, ср
ср2700:00+2зюз61272100 0.0 1020404
03:00+1зюз51276100 0.0 1019389
06:00+2зюз51277100 0.0 1018396
09:00+3юз61271100 0.0 1017494
12:00+5юз71259100 0.0 1017646
15:00+6юз71456100 0.0 1015691
18:00+5юз71561100 0.0 1014616
21:00+5зюз81565100 0.0 1012746
28 октября, чт
чт2800:00+4зюз81586100 0.1 1011808
03:00+4з71397100 0.8 1011858
06:00+5з71284100 0.0 1012730
09:00+6зюз6127892 0.1 1012593
12:00+7зюз71068100 0.0 1012828
15:00+8зюз5967100 0.0 1012872
18:00+6юз5884100 0.4 1012913
21:00+5ссв1194100 3.1 1013168
29 октября, пт
пт2900:00+6с5885100 0.6 1015970
03:00+2с6108596 0.7 1020568
06:00−3с59795 0.0 1025389
09:00−2св45655 0.0 1028412
12:00+1св22477 0.0 1029569
15:00+2ююз124485 0.0 1029512
18:00−1ююз3458100 0.0 102979
21:00+1ююз4960100 0.0 1029301
30 октября, сб
сб3000:00+3юз61464100 0.1 1027440
03:00+4зюз7167876 0.1 1026591
06:00+4зюз7168572 0.0 1025430
09:00+5зюз7168597 0.0 1025480
12:00+9з8157645 0.0 1025575
15:00+9з71479100 0.0 1026593
18:00+7з614885 0.0 1027422
21:00+6з513905 0.0 1027347
31 октября, вс
вс3100:00+5з411925 0.0 1028266
03:00+4зюз410915 0.0 1029215
06:00+3зюз410915 0.0 1029191
09:00+5зюз511785 0.0 1029296
12:00+9зюз610615 0.0 1028471
15:00+9зюз612645 0.0 1027503
18:00+6зюз513755 0.0 1027328
21:00+5зюз512837 0.0 1028303